TimeEST,TemperatureF,Dew PointF,Humidity,Sea Level PressureIn,VisibilityMPH,Wind Direction,Wind SpeedMPH,Gust SpeedMPH,PrecipitationIn,Events,Conditions,WindDirDegrees,DateUTC
12:15 AM,26.1,25.3,97,30.25,7.0,Calm,Calm,-,N/A,,Clear,0,2013-03-08 05:15:00
12:35 AM,27.5,25.3,92,30.25,10.0,Calm,Calm,-,N/A,,Clear,0,2013-03-08 05:35:00
12:55 AM,25.7,24.8,96,30.24,10.0,Calm,Calm,-,N/A,,Clear,0,2013-03-08 05:55:00
1:15 AM,25.9,24.6,95,30.25,7.0,Calm,Calm,-,N/A,,Clear,0,2013-03-08 06:15:00
1:35 AM,26.2,23.9,91,30.26,10.0,Calm,Calm,-,N/A,,Clear,0,2013-03-08 06:35:00
1:55 AM,24.4,23.7,97,30.26,7.0,Calm,Calm,-,N/A,,Clear,0,2013-03-08 06:55:00
2:15 AM,25.9,24.4,94,30.26,7.0,Calm,Calm,-,N/A,,Clear,0,2013-03-08 07:15:00
2:35 AM,25.0,23.9,96,30.26,10.0,Calm,Calm,-,N/A,,Clear,0,2013-03-08 07:35:00
2:55 AM,25.3,23.9,94,30.25,10.0,Calm,Calm,-,N/A,,Clear,0,2013-03-08 07:55:00
3:15 AM,25.3,24.6,97,30.26,10.0,Calm,Calm,-,N/A,,Mostly Cloudy,0,2013-03-08 08:15:00
3:35 AM,24.8,23.5,95,30.26,7.0,West,3.5,-,N/A,,Overcast,270,2013-03-08 08:35:00
3:55 AM,25.5,25.0,98,30.26,1.0,Calm,Calm,-,N/A,,Overcast,0,2013-03-08 08:55:00
4:15 AM,25.7,25.3,99,30.26,1.2,Calm,Calm,-,N/A,,Overcast,0,2013-03-08 09:15:00
4:35 AM,25.7,25.3,99,30.26,1.0,Calm,Calm,-,N/A,,Overcast,0,2013-03-08 09:35:00
4:55 AM,25.7,25.5,99,30.27,0.5,Calm,Calm,-,N/A,Fog,Light Freezing Fog,0,2013-03-08 09:55:00
5:15 AM,25.5,25.2,99,30.27,0.5,Calm,Calm,-,N/A,Fog,Light Freezing Fog,0,2013-03-08 10:15:00
5:35 AM,25.5,25.3,99,30.28,0.5,Calm,Calm,-,N/A,Fog,Light Freezing Fog,0,2013-03-08 10:35:00
5:55 AM,25.5,25.3,99,30.28,0.8,Calm,Calm,-,N/A,,Overcast,0,2013-03-08 10:55:00
6:15 AM,25.3,24.8,98,30.28,0.8,Calm,Calm,-,N/A,,Overcast,0,2013-03-08 11:15:00
6:35 AM,25.0,24.6,99,30.28,1.8,Calm,Calm,-,N/A,,Overcast,0,2013-03-08 11:35:00
6:55 AM,25.0,24.6,99,30.29,2.0,Calm,Calm,-,N/A,,Overcast,0,2013-03-08 11:55:00
7:15 AM,25.0,24.8,99,30.30,0.2,Calm,Calm,-,N/A,Fog,Light Freezing Fog,0,2013-03-08 12:15:00
7:35 AM,24.8,24.6,99,30.31,0.5,Calm,Calm,-,N/A,Fog,Light Freezing Fog,0,2013-03-08 12:35:00
7:55 AM,25.5,25.2,99,30.32,0.2,Calm,Calm,-,N/A,Fog,Light Freezing Fog,0,2013-03-08 12:55:00
8:15 AM,25.7,25.3,99,30.32,0.2,Calm,Calm,-,N/A,Fog,Light Freezing Fog,0,2013-03-08 13:15:00
8:35 AM,26.6,26.2,99,30.32,0.2,Calm,Calm,-,N/A,Fog,Light Freezing Fog,0,2013-03-08 13:35:00
8:55 AM,27.7,27.1,98,30.31,0.8,Calm,Calm,-,N/A,,Overcast,0,2013-03-08 13:55:00
9:15 AM,29.1,28.2,96,30.31,2.5,Calm,Calm,-,N/A,,Scattered Clouds,0,2013-03-08 14:15:00
9:35 AM,30.9,29.8,96,30.32,4.0,WSW,3.5,-,N/A,,Scattered Clouds,250,2013-03-08 14:35:00
9:55 AM,32.5,30.2,91,30.31,7.0,WSW,3.5,-,N/A,,Clear,250,2013-03-08 14:55:00
10:15 AM,34.7,30.7,85,30.30,10.0,Calm,Calm,-,N/A,,Clear,0,2013-03-08 15:15:00
10:35 AM,37.6,31.8,80,30.29,10.0,Calm,Calm,-,N/A,,Clear,0,2013-03-08 15:35:00
10:55 AM,41.0,32.0,70,30.28,10.0,Calm,Calm,-,N/A,,Clear,0,2013-03-08 15:55:00
11:15 AM,44.2,32.4,63,30.28,10.0,WSW,3.5,-,N/A,,Clear,240,2013-03-08 16:15:00
11:35 AM,49.1,32.4,53,30.27,10.0,WSW,8.1,-,N/A,,Clear,250,2013-03-08 16:35:00
11:55 AM,52.3,25.7,36,30.27,10.0,Calm,Calm,-,N/A,,Clear,0,2013-03-08 16:55:00
12:15 PM,54.3,9.9,17,30.26,10.0,NNE,8.1,-,N/A,,Clear,20,2013-03-08 17:15:00
12:35 PM,55.2,10.2,17,30.26,10.0,North,8.1,-,N/A,,Clear,350,2013-03-08 17:35:00
12:55 PM,55.8,11.8,18,30.26,10.0,North,9.2,17.3,N/A,,Clear,350,2013-03-08 17:55:00
1:15 PM,57.0,14.4,19,30.25,10.0,North,4.6,16.1,N/A,,Clear,360,2013-03-08 18:15:00
1:35 PM,57.0,11.7,17,30.25,10.0,NNW,10.4,18.4,N/A,,Clear,340,2013-03-08 18:35:00
1:55 PM,57.7,13.8,18,30.24,10.0,NW,11.5,17.3,N/A,,Clear,320,2013-03-08 18:55:00
2:15 PM,57.4,11.8,17,30.24,10.0,NNE,10.4,16.1,N/A,,Clear,30,2013-03-08 19:15:00
2:35 PM,58.3,15.3,19,30.23,10.0,NNE,10.4,-,N/A,,Clear,30,2013-03-08 19:35:00
2:55 PM,57.9,13.3,17,30.22,10.0,NNE,12.7,17.3,N/A,,Clear,20,2013-03-08 19:55:00
3:15 PM,58.1,13.8,18,30.22,10.0,NNE,11.5,16.1,N/A,,Clear,20,2013-03-08 20:15:00
3:35 PM,57.7,16.0,20,30.21,10.0,North,12.7,17.3,N/A,,Clear,350,2013-03-08 20:35:00
3:55 PM,57.9,16.9,20,30.20,10.0,North,8.1,-,N/A,,Clear,10,2013-03-08 20:55:00
4:15 PM,57.9,14.9,19,30.20,10.0,North,8.1,-,N/A,,Clear,360,2013-03-08 21:15:00
4:35 PM,57.7,15.6,19,30.20,10.0,NNW,8.1,-,N/A,,Clear,330,2013-03-08 21:35:00
4:55 PM,57.6,16.2,20,30.20,10.0,NNW,9.2,-,N/A,,Clear,330,2013-03-08 21:55:00
5:15 PM,57.6,15.3,19,30.20,10.0,North,9.2,-,N/A,,Clear,360,2013-03-08 22:15:00
5:35 PM,56.7,12.9,18,30.21,10.0,North,10.4,-,N/A,,Clear,350,2013-03-08 22:35:00
5:55 PM,55.8,11.7,17,30.21,10.0,NNW,9.2,-,N/A,,Clear,340,2013-03-08 22:55:00
6:15 PM,54.1,13.1,20,30.22,10.0,NW,6.9,-,N/A,,Clear,320,2013-03-08 23:15:00
6:35 PM,50.7,16.0,25,30.22,10.0,ENE,3.5,-,N/A,,Clear,70,2013-03-08 23:35:00
6:55 PM,45.9,22.1,39,30.24,10.0,SW,3.5,-,N/A,,Clear,220,2013-03-08 23:55:00
7:15 PM,42.3,24.1,49,30.24,10.0,Calm,Calm,-,N/A,,Clear,0,2013-03-09 00:15:00
7:35 PM,41.2,25.3,53,30.24,10.0,Calm,Calm,-,N/A,,Clear,0,2013-03-09 00:35:00
7:55 PM,39.2,25.7,58,30.24,10.0,Calm,Calm,-,N/A,,Clear,0,2013-03-09 00:55:00
8:15 PM,36.3,27.3,70,30.25,10.0,WSW,3.5,-,N/A,,Clear,240,2013-03-09 01:15:00
8:35 PM,37.6,26.8,65,30.26,10.0,Calm,Calm,-,N/A,,Clear,0,2013-03-09 01:35:00
8:55 PM,34.0,27.1,76,30.26,10.0,Calm,Calm,-,N/A,,Clear,0,2013-03-09 01:55:00
9:15 PM,36.7,25.3,64,30.25,10.0,Calm,Calm,-,N/A,,Clear,0,2013-03-09 02:15:00
9:35 PM,34.3,28.0,78,30.27,10.0,WSW,3.5,-,N/A,,Clear,240,2013-03-09 02:35:00
9:55 PM,34.7,26.6,72,30.27,10.0,Calm,Calm,-,N/A,,Clear,0,2013-03-09 02:55:00
10:15 PM,33.1,25.9,75,30.27,10.0,Calm,Calm,-,N/A,,Clear,0,2013-03-09 03:15:00
10:35 PM,32.4,26.6,79,30.28,10.0,Calm,Calm,-,N/A,,Clear,0,2013-03-09 03:35:00
10:55 PM,31.6,26.4,81,30.27,10.0,Calm,Calm,-,N/A,,Clear,0,2013-03-09 03:55:00
11:15 PM,32.0,25.5,77,30.27,10.0,Calm,Calm,-,N/A,,Clear,0,2013-03-09 04:15:00
11:35 PM,31.3,25.5,79,30.27,10.0,Calm,Calm,-,N/A,,Clear,0,2013-03-09 04:35:00
11:55 PM,30.6,26.2,84,30.27,10.0,Calm,Calm,-,N/A,,Clear,0,2013-03-09 04:55:00